FFT27 KCVG-MMUN

Flight info

Callsign FFT27
Flight time 3h 8m
Altitude 34000
Route SILKS6 TRFWA DCT SWAPP Q79 IISLY DCT JAMIZ DCT KLIIN DCT KNOST M215 PISAD UM215 NUDIS UT38 LEVAT UM782 VOMAR VOMAR1A
Aircraft A21N/M-SDE2E3FGHIRWXY/LB1

Departure

Time 2026-05-06 16:05
Airport Cincinnati Northern Kentucky International Airport (KCVG)

Arrival

Time 2026-05-06 19:13
Airport Cancún International Airport (MMUN)
Time Latitude Longitude Altitude Speed Heading
2026-05-06 15:19 39.05287 -84.65240 884 ft 0 kts
2026-05-06 15:54 39.05278 -84.65240 884 ft 4 kts
2026-05-06 15:54 39.05251 -84.65240 884 ft 4 kts 359°
2026-05-06 15:54 39.05228 -84.65242 884 ft 4 kts 25°
2026-05-06 15:54 39.05214 -84.65263 884 ft 4 kts 81°
2026-05-06 15:55 39.05213 -84.65283 884 ft 2 kts 90°
2026-05-06 15:55 39.05213 -84.65289 884 ft 0 kts 90°
2026-05-06 16:00 39.05213 -84.65287 884 ft 1 kts 90°
2026-05-06 16:00 39.05213 -84.65252 884 ft 6 kts 90°
2026-05-06 16:01 39.05213 -84.65178 884 ft 11 kts 90°
2026-05-06 16:01 39.05213 -84.65065 884 ft 14 kts 90°
2026-05-06 16:01 39.05161 -84.64989 884 ft 14 kts 179°
2026-05-06 16:01 39.05055 -84.64988 884 ft 16 kts 178°
2026-05-06 16:02 39.04936 -84.64987 884 ft 18 kts 180°
2026-05-06 16:02 39.04847 -84.64988 884 ft 7 kts 180°
2026-05-06 16:02 39.04814 -84.65040 884 ft 9 kts 256°
2026-05-06 16:02 39.04809 -84.65129 885 ft 11 kts 270°
2026-05-06 16:03 39.04810 -84.65238 885 ft 13 kts 270°
2026-05-06 16:03 39.04761 -84.65302 886 ft 14 kts 177°
2026-05-06 16:03 39.04692 -84.65302 888 ft 6 kts 181°
2026-05-06 16:03 39.04641 -84.65313 889 ft 9 kts 225°
2026-05-06 16:04 39.04628 -84.65353 889 ft 0 kts 265°
2026-05-06 16:04 39.04626 -84.65570 887 ft 60 kts 271°
2026-05-06 16:05 39.04630 -84.66428 890 ft 128 kts 270°
2026-05-06 16:05 39.04635 -84.67782 899 ft 172 kts 271°
2026-05-06 16:05 39.04593 -84.69292 1544 ft 166 kts 274°
2026-05-06 16:05 39.04558 -84.70768 2272 ft 163 kts 272°
2026-05-06 16:06 39.04575 -84.72273 2657 ft 181 kts 278°
2026-05-06 16:06 39.04641 -84.73968 3140 ft 199 kts 275°
2026-05-06 16:06 39.04640 -84.75871 3520 ft 228 kts 273°
2026-05-06 16:06 39.04631 -84.78020 3999 ft 252 kts 272°
2026-05-06 16:07 39.04621 -84.80328 4806 ft 260 kts 272°
2026-05-06 16:07 39.04611 -84.82656 5825 ft 259 kts 270°
2026-05-06 16:07 39.04603 -84.84974 6837 ft 258 kts 269°
2026-05-06 16:07 39.04572 -84.87281 7793 ft 258 kts 264°
2026-05-06 16:08 39.04103 -84.89494 8709 ft 259 kts 244°
2026-05-06 16:08 39.03025 -84.91316 9612 ft 263 kts 225°
2026-05-06 16:08 39.01411 -84.92570 10329 ft 282 kts 206°
2026-05-06 16:08 38.99368 -84.92926 10626 ft 323 kts 182°
2026-05-06 16:09 38.97084 -84.92081 10901 ft 363 kts 160°
2026-05-06 16:09 38.94936 -84.90105 11178 ft 397 kts 142°
2026-05-06 16:09 38.92870 -84.87638 11447 ft 411 kts 150°
2026-05-06 16:09 38.90358 -84.85907 11747 ft 409 kts 168°
2026-05-06 16:10 38.87602 -84.85252 12239 ft 399 kts 186°
2026-05-06 16:10 38.84929 -84.85683 12775 ft 386 kts 204°
2026-05-06 16:10 38.82369 -84.86716 13414 ft 389 kts 204°
2026-05-06 16:10 38.79631 -84.87188 14021 ft 410 kts 189°
2026-05-06 16:11 38.76736 -84.86623 14558 ft 429 kts 175°
2026-05-06 16:11 38.73855 -84.85512 15245 ft 435 kts 172°
2026-05-06 16:11 38.70964 -84.84316 15899 ft 438 kts 172°
2026-05-06 16:11 38.68036 -84.83149 16496 ft 441 kts 173°
2026-05-06 16:12 38.65092 -84.82028 17074 ft 444 kts 174°
2026-05-06 16:12 38.62119 -84.80916 17645 ft 447 kts 174°
2026-05-06 16:12 38.59122 -84.79808 18212 ft 450 kts 174°
2026-05-06 16:12 38.56108 -84.78699 18694 ft 452 kts 174°
2026-05-06 16:13 38.53067 -84.77563 19146 ft 455 kts 174°
2026-05-06 16:13 38.50017 -84.76418 19651 ft 458 kts 174°
2026-05-06 16:13 38.46936 -84.75494 20152 ft 448 kts 182°
2026-05-06 16:13 38.43880 -84.75334 20631 ft 434 kts 193°
2026-05-06 16:14 38.40875 -84.75599 21193 ft 434 kts 195°
2026-05-06 16:14 38.37845 -84.75913 21804 ft 437 kts 195°
2026-05-06 16:14 38.34845 -84.76206 22357 ft 440 kts 195°
2026-05-06 16:14 38.31783 -84.76483 22878 ft 443 kts 194°
2026-05-06 16:15 38.28696 -84.76754 23372 ft 445 kts 194°
2026-05-06 16:15 38.25593 -84.77022 23803 ft 448 kts 194°
2026-05-06 16:15 38.22483 -84.77290 24243 ft 448 kts 194°
2026-05-06 16:15 38.19379 -84.77555 24747 ft 446 kts 195°
2026-05-06 16:16 38.16286 -84.77822 25247 ft 444 kts 195°
2026-05-06 16:16 38.13205 -84.78088 25733 ft 443 kts 195°
2026-05-06 16:16 38.10129 -84.78353 26223 ft 442 kts 195°
2026-05-06 16:16 38.07065 -84.78617 26660 ft 440 kts 195°
2026-05-06 16:17 38.04005 -84.78884 27032 ft 442 kts 195°
2026-05-06 16:17 38.00963 -84.79309 27474 ft 433 kts 201°
2026-05-06 16:17 37.98042 -84.80083 27943 ft 428 kts 204°
2026-05-06 16:17 37.95137 -84.80922 28387 ft 427 kts 204°
2026-05-06 16:18 37.92239 -84.81761 28858 ft 426 kts 204°
2026-05-06 16:18 37.89389 -84.82578 29327 ft 425 kts 204°
2026-05-06 16:18 37.86506 -84.83398 29790 ft 424 kts 204°
2026-05-06 16:18 37.83633 -84.84213 30143 ft 423 kts 204°
2026-05-06 16:19 37.80760 -84.85026 30479 ft 423 kts 204°
2026-05-06 16:19 37.77887 -84.85838 30839 ft 422 kts 205°
2026-05-06 16:19 37.75023 -84.86646 31211 ft 421 kts 205°
2026-05-06 16:19 37.72171 -84.87451 31577 ft 419 kts 205°
2026-05-06 16:20 37.69332 -84.88252 31940 ft 418 kts 205°
2026-05-06 16:20 37.66500 -84.89050 32292 ft 416 kts 206°
2026-05-06 16:20 37.63678 -84.89846 32622 ft 415 kts 206°
2026-05-06 16:20 37.60864 -84.90642 32942 ft 413 kts 206°
2026-05-06 16:21 37.58054 -84.91430 33133 ft 414 kts 206°
2026-05-06 16:21 37.55237 -84.92218 33383 ft 415 kts 206°
2026-05-06 16:21 37.52455 -84.92996 33636 ft 414 kts 206°
2026-05-06 16:21 37.49640 -84.93784 33909 ft 414 kts 206°
2026-05-06 16:22 37.46822 -84.94574 34016 ft 415 kts 206°
2026-05-06 16:22 37.43994 -84.95367 34015 ft 415 kts 206°
2026-05-06 16:22 37.38353 -84.96943 33991 ft 415 kts 206°
2026-05-06 16:23 37.32713 -84.98519 33984 ft 415 kts 206°
2026-05-06 16:23 37.27064 -85.00095 33993 ft 415 kts 206°
2026-05-06 16:24 37.21463 -85.01657 33968 ft 415 kts 206°
2026-05-06 16:24 37.15807 -85.03227 33972 ft 415 kts 206°
2026-05-06 16:25 37.10156 -85.04797 33960 ft 416 kts 206°
2026-05-06 16:25 37.04567 -85.06347 33984 ft 413 kts 206°
2026-05-06 16:26 36.98943 -85.07901 33994 ft 413 kts 206°
2026-05-06 16:26 36.93328 -85.09453 33995 ft 413 kts 206°
2026-05-06 16:27 36.87707 -85.11007 33956 ft 414 kts 205°
2026-05-06 16:27 36.82073 -85.12561 33982 ft 415 kts 205°
2026-05-06 16:28 36.76430 -85.14112 33990 ft 415 kts 205°
2026-05-06 16:28 36.70816 -85.15654 33986 ft 415 kts 205°
2026-05-06 16:29 36.65173 -85.17204 33975 ft 415 kts 205°
2026-05-06 16:29 36.62284 -85.17797 33934 ft 429 kts 198°
2026-05-06 16:29 36.59233 -85.17745 33946 ft 450 kts 186°
2026-05-06 16:30 36.54041 -85.16472 33959 ft 458 kts 180°
2026-05-06 16:30 36.46807 -85.14482 33958 ft 457 kts 181°
2026-05-06 16:31 36.40579 -85.12859 33951 ft 458 kts 182°
2026-05-06 16:31 36.34336 -85.11249 33935 ft 458 kts 181°
2026-05-06 16:32 36.28082 -85.09642 33949 ft 458 kts 181°
2026-05-06 16:32 36.21831 -85.08031 33965 ft 458 kts 181°
2026-05-06 16:33 36.15590 -85.06427 33968 ft 457 kts 181°
2026-05-06 16:34 36.06258 -85.04041 33975 ft 461 kts 180°
2026-05-06 16:34 35.99960 -85.02426 33989 ft 463 kts 180°
2026-05-06 16:35 35.93652 -85.00809 33988 ft 463 kts 180°
2026-05-06 16:35 35.87341 -84.99197 33989 ft 463 kts 180°
2026-05-06 16:36 35.81031 -84.97593 33963 ft 463 kts 180°
2026-05-06 16:36 35.74726 -84.95986 33952 ft 463 kts 180°
2026-05-06 16:37 35.68452 -84.94388 33959 ft 463 kts 180°
2026-05-06 16:37 35.62130 -84.92783 33937 ft 464 kts 179°
2026-05-06 16:38 35.55785 -84.91173 33964 ft 466 kts 179°
2026-05-06 16:38 35.49435 -84.89563 33969 ft 466 kts 179°
2026-05-06 16:39 35.43082 -84.87954 33968 ft 466 kts 179°
2026-05-06 16:39 35.36757 -84.86358 33950 ft 467 kts 179°
2026-05-06 16:40 35.30369 -84.84750 33972 ft 468 kts 179°
2026-05-06 16:40 35.23974 -84.83141 33978 ft 469 kts 179°
2026-05-06 16:41 35.17623 -84.81545 33982 ft 469 kts 179°
2026-05-06 16:41 35.11213 -84.79936 33947 ft 470 kts 179°
2026-05-06 16:42 35.04782 -84.78328 33976 ft 471 kts 179°
2026-05-06 16:42 34.98366 -84.76727 33996 ft 471 kts 179°
2026-05-06 16:43 34.91977 -84.75130 34009 ft 471 kts 179°
2026-05-06 16:43 34.85555 -84.73526 33994 ft 472 kts 179°
2026-05-06 16:44 34.79104 -84.71922 34029 ft 473 kts 179°
2026-05-06 16:44 34.73741 -84.70591 34040 ft 473 kts 179°
2026-05-06 16:45 34.66197 -84.68720 34028 ft 473 kts 179°
2026-05-06 16:45 34.60831 -84.67388 33983 ft 474 kts 180°
2026-05-06 16:46 34.54365 -84.65760 33992 ft 475 kts 179°
2026-05-06 16:46 34.47889 -84.64050 34013 ft 477 kts 179°
2026-05-06 16:47 34.41389 -84.62358 34049 ft 477 kts 179°
2026-05-06 16:47 34.34894 -84.60669 34033 ft 477 kts 179°
2026-05-06 16:48 34.28408 -84.58980 34059 ft 477 kts 179°
2026-05-06 16:48 34.21907 -84.57284 34068 ft 477 kts 179°
2026-05-06 16:49 34.15468 -84.55610 34084 ft 477 kts 179°
2026-05-06 16:49 34.08972 -84.53928 34048 ft 477 kts 179°
2026-05-06 16:50 34.02466 -84.52271 34071 ft 477 kts 180°
2026-05-06 16:51 33.96890 -84.51016 34037 ft 477 kts 180°
2026-05-06 16:51 33.90362 -84.49580 34044 ft 477 kts 180°
2026-05-06 16:52 33.83837 -84.48139 34072 ft 476 kts 180°
2026-05-06 16:52 33.77306 -84.46701 34059 ft 480 kts 181°
2026-05-06 16:53 33.70706 -84.45257 34084 ft 480 kts 180°
2026-05-06 16:53 33.64130 -84.43810 34073 ft 482 kts 179°
2026-05-06 16:53 33.60851 -84.42760 34085 ft 493 kts 172°
2026-05-06 16:54 33.57597 -84.41457 34085 ft 494 kts 172°
2026-05-06 16:54 33.51117 -84.38823 34067 ft 496 kts 172°
2026-05-06 16:55 33.44566 -84.36183 34114 ft 497 kts 172°
2026-05-06 16:55 33.38011 -84.33559 34124 ft 497 kts 172°
2026-05-06 16:56 33.31456 -84.30939 34120 ft 497 kts 172°
2026-05-06 16:56 33.24891 -84.28318 34104 ft 497 kts 172°
2026-05-06 16:57 33.18318 -84.25680 34100 ft 498 kts 172°
2026-05-06 16:57 33.11727 -84.23047 34092 ft 498 kts 172°
2026-05-06 16:58 33.05185 -84.20448 34075 ft 498 kts 172°
2026-05-06 16:58 32.98603 -84.17839 34102 ft 500 kts 172°
2026-05-06 16:59 32.91999 -84.15222 34116 ft 500 kts 172°
2026-05-06 16:59 32.85380 -84.12602 34110 ft 501 kts 172°
2026-05-06 17:00 32.78768 -84.09992 34099 ft 501 kts 172°
2026-05-06 17:00 32.72153 -84.07385 34072 ft 501 kts 171°
2026-05-06 17:01 32.65521 -84.04774 34083 ft 501 kts 171°
2026-05-06 17:01 32.58945 -84.02190 34091 ft 501 kts 171°
2026-05-06 17:02 32.52316 -83.99586 34096 ft 501 kts 171°
2026-05-06 17:02 32.45699 -83.96990 34085 ft 500 kts 171°
2026-05-06 17:03 32.39090 -83.94407 34095 ft 500 kts 171°
2026-05-06 17:03 32.32483 -83.91827 34081 ft 500 kts 171°
2026-05-06 17:04 32.25893 -83.89260 34082 ft 503 kts 171°
2026-05-06 17:04 32.19226 -83.86663 34055 ft 504 kts 171°
2026-05-06 17:05 32.12572 -83.84073 34078 ft 503 kts 171°
2026-05-06 17:05 32.05920 -83.81490 34081 ft 503 kts 171°
2026-05-06 17:06 31.99310 -83.78930 34086 ft 503 kts 171°
2026-05-06 17:06 31.92661 -83.76355 34087 ft 503 kts 171°
2026-05-06 17:07 31.86017 -83.73790 34083 ft 502 kts 171°
2026-05-06 17:07 31.79379 -83.71226 34086 ft 502 kts 171°
2026-05-06 17:08 31.72734 -83.68664 34088 ft 502 kts 171°
2026-05-06 17:08 31.66093 -83.66108 34088 ft 502 kts 171°
2026-05-06 17:09 31.59488 -83.63573 34101 ft 502 kts 171°
2026-05-06 17:09 31.52836 -83.61027 34107 ft 502 kts 171°
2026-05-06 17:10 31.46193 -83.58482 34120 ft 503 kts 171°
2026-05-06 17:10 31.39546 -83.55938 34125 ft 502 kts 171°
2026-05-06 17:11 31.32889 -83.53394 34099 ft 502 kts 171°
2026-05-06 17:11 31.26231 -83.50857 34109 ft 504 kts 170°
2026-05-06 17:12 31.19561 -83.48322 34105 ft 504 kts 170°
2026-05-06 17:12 31.12883 -83.45791 34091 ft 504 kts 170°
2026-05-06 17:13 31.06256 -83.43278 34067 ft 504 kts 170°
2026-05-06 17:13 30.99589 -83.40746 34091 ft 504 kts 170°
2026-05-06 17:14 30.92915 -83.38220 34112 ft 504 kts 170°
2026-05-06 17:14 30.86244 -83.35697 34114 ft 504 kts 170°
2026-05-06 17:15 30.79578 -83.33184 34120 ft 504 kts 170°
2026-05-06 17:15 30.72913 -83.30727 34115 ft 498 kts 174°
2026-05-06 17:15 30.69536 -83.30089 34119 ft 485 kts 185°
2026-05-06 17:16 30.66204 -83.30110 34123 ft 477 kts 192°
2026-05-06 17:16 30.59638 -83.30525 34120 ft 476 kts 192°
2026-05-06 17:17 30.53021 -83.30902 34115 ft 476 kts 192°
2026-05-06 17:17 30.46391 -83.31247 34113 ft 477 kts 192°
2026-05-06 17:18 30.39758 -83.31594 34110 ft 478 kts 192°
2026-05-06 17:18 30.33111 -83.31936 34109 ft 477 kts 192°
2026-05-06 17:19 30.26470 -83.32283 34105 ft 478 kts 192°
2026-05-06 17:19 30.19757 -83.32003 34092 ft 490 kts 181°
2026-05-06 17:20 30.13010 -83.30894 34106 ft 490 kts 180°
2026-05-06 17:20 30.06254 -83.29793 34109 ft 490 kts 180°
2026-05-06 17:21 29.99544 -83.28731 34106 ft 490 kts 180°
2026-05-06 17:21 29.92779 -83.27663 34079 ft 489 kts 180°
2026-05-06 17:22 29.86038 -83.26615 34105 ft 488 kts 180°
2026-05-06 17:22 29.79300 -83.25546 34109 ft 488 kts 180°
2026-05-06 17:23 29.72572 -83.24482 34110 ft 488 kts 180°
2026-05-06 17:23 29.65840 -83.23428 34110 ft 488 kts 180°
2026-05-06 17:24 29.59160 -83.22372 34103 ft 486 kts 180°
2026-05-06 17:24 29.52448 -83.21321 34111 ft 486 kts 180°
2026-05-06 17:25 29.45742 -83.20272 34114 ft 486 kts 180°
2026-05-06 17:25 29.39029 -83.19227 34112 ft 486 kts 180°
2026-05-06 17:26 29.32375 -83.18187 34107 ft 485 kts 179°
2026-05-06 17:26 29.25684 -83.17146 34111 ft 484 kts 179°
2026-05-06 17:27 29.19001 -83.16106 34114 ft 484 kts 179°
2026-05-06 17:27 29.12343 -83.15074 34112 ft 486 kts 179°
2026-05-06 17:28 29.05635 -83.14112 34097 ft 482 kts 184°
2026-05-06 17:28 29.02328 -83.14220 34103 ft 469 kts 195°
2026-05-06 17:28 28.99154 -83.14938 34113 ft 463 kts 201°
2026-05-06 17:29 28.92921 -83.16724 34112 ft 461 kts 201°
2026-05-06 17:29 28.86715 -83.18509 34111 ft 460 kts 201°
2026-05-06 17:30 28.80484 -83.20247 34113 ft 462 kts 201°
2026-05-06 17:30 28.74226 -83.21984 34109 ft 463 kts 201°
2026-05-06 17:31 28.67992 -83.23706 34108 ft 463 kts 201°
2026-05-06 17:31 28.61713 -83.25439 34108 ft 463 kts 201°
2026-05-06 17:32 28.55445 -83.27166 34112 ft 463 kts 201°
2026-05-06 17:32 28.50236 -83.28603 34112 ft 463 kts 201°
2026-05-06 17:33 28.42953 -83.30602 34105 ft 463 kts 200°
2026-05-06 17:33 28.37703 -83.32041 34106 ft 463 kts 200°
2026-05-06 17:34 28.31445 -83.33764 34109 ft 463 kts 200°
2026-05-06 17:34 28.25192 -83.35472 34107 ft 463 kts 200°
2026-05-06 17:35 28.18923 -83.37183 34099 ft 463 kts 200°
2026-05-06 17:35 28.12688 -83.38858 34099 ft 463 kts 200°
2026-05-06 17:36 28.03538 -83.41998 34099 ft 449 kts 216°
2026-05-06 17:36 28.01008 -83.43998 34102 ft 439 kts 227°
2026-05-06 17:36 27.98945 -83.46503 34102 ft 431 kts 238°
2026-05-06 17:37 27.97404 -83.49367 34108 ft 424 kts 249°
2026-05-06 17:37 27.96251 -83.52422 34109 ft 422 kts 252°
2026-05-06 17:37 27.94055 -83.58575 34103 ft 420 kts 251°
2026-05-06 17:38 27.91834 -83.64655 34101 ft 421 kts 251°
2026-05-06 17:38 27.89569 -83.70789 34103 ft 424 kts 251°
2026-05-06 17:39 27.87289 -83.76964 34103 ft 425 kts 251°
2026-05-06 17:39 27.85010 -83.83128 34108 ft 425 kts 251°
2026-05-06 17:40 27.82734 -83.89290 34107 ft 425 kts 251°
2026-05-06 17:40 27.80455 -83.95437 34106 ft 423 kts 251°
2026-05-06 17:41 27.78173 -84.01573 34106 ft 423 kts 251°
2026-05-06 17:41 27.75909 -84.07668 34103 ft 423 kts 251°
2026-05-06 17:42 27.73622 -84.13799 34101 ft 423 kts 251°
2026-05-06 17:42 27.71336 -84.19925 34102 ft 423 kts 251°
2026-05-06 17:43 27.69044 -84.26045 34104 ft 423 kts 251°
2026-05-06 17:43 27.66748 -84.32176 34102 ft 424 kts 250°
2026-05-06 17:44 27.64463 -84.38259 34100 ft 423 kts 250°
2026-05-06 17:44 27.62164 -84.44378 34099 ft 423 kts 250°
2026-05-06 17:45 27.59861 -84.50492 34099 ft 423 kts 250°
2026-05-06 17:45 27.57555 -84.56607 34103 ft 423 kts 250°
2026-05-06 17:46 27.55245 -84.62719 34095 ft 422 kts 250°
2026-05-06 17:46 27.52945 -84.68771 34097 ft 422 kts 250°
2026-05-06 17:47 27.50629 -84.74827 34096 ft 421 kts 247°
2026-05-06 17:47 27.47126 -84.80177 34096 ft 434 kts 227°
2026-05-06 17:48 27.42295 -84.84336 34097 ft 438 kts 222°
2026-05-06 17:48 27.37379 -84.88409 34086 ft 438 kts 222°
2026-05-06 17:49 27.32489 -84.92506 34094 ft 438 kts 222°
2026-05-06 17:49 27.27643 -84.96572 34093 ft 437 kts 222°
2026-05-06 17:50 27.22771 -85.00657 34095 ft 437 kts 222°
2026-05-06 17:50 27.17900 -85.04735 34094 ft 437 kts 222°
2026-05-06 17:51 27.13033 -85.08802 34090 ft 435 kts 222°
2026-05-06 17:51 27.08174 -85.12861 34073 ft 435 kts 222°
2026-05-06 17:52 27.03314 -85.16918 34086 ft 435 kts 222°
2026-05-06 17:52 26.98479 -85.20949 34089 ft 436 kts 222°
2026-05-06 17:53 26.93610 -85.24999 34089 ft 436 kts 222°
2026-05-06 17:53 26.88738 -85.29055 34086 ft 436 kts 222°
2026-05-06 17:54 26.83868 -85.33100 34086 ft 435 kts 222°
2026-05-06 17:54 26.78990 -85.37148 34071 ft 436 kts 221°
2026-05-06 17:55 26.74116 -85.41188 34083 ft 437 kts 221°
2026-05-06 17:55 26.69228 -85.45236 34081 ft 436 kts 221°
2026-05-06 17:56 26.64385 -85.49244 34083 ft 436 kts 221°
2026-05-06 17:56 26.59511 -85.53270 34081 ft 436 kts 221°
2026-05-06 17:57 26.54637 -85.57289 34081 ft 436 kts 221°
2026-05-06 17:57 26.49759 -85.61312 34067 ft 436 kts 221°
2026-05-06 17:58 26.44874 -85.65339 34085 ft 436 kts 221°
2026-05-06 17:58 26.40007 -85.69341 34072 ft 436 kts 221°
2026-05-06 17:59 26.35118 -85.73358 34072 ft 436 kts 221°
2026-05-06 17:59 26.30225 -85.77372 34076 ft 436 kts 221°
2026-05-06 18:00 26.25335 -85.81384 34077 ft 436 kts 221°
2026-05-06 18:00 26.20441 -85.85392 34079 ft 436 kts 221°
2026-05-06 18:01 26.15532 -85.89410 34064 ft 439 kts 221°
2026-05-06 18:01 26.10598 -85.93441 34070 ft 440 kts 221°
2026-05-06 18:02 26.05691 -85.97445 34065 ft 440 kts 220°
2026-05-06 18:02 26.00480 -86.01101 34071 ft 443 kts 216°
2026-05-06 18:03 25.95191 -86.04624 34065 ft 443 kts 216°
2026-05-06 18:03 25.89907 -86.08157 34064 ft 443 kts 216°
2026-05-06 18:04 25.84637 -86.11677 34062 ft 445 kts 216°
2026-05-06 18:04 25.79322 -86.15217 34063 ft 446 kts 216°
2026-05-06 18:05 25.73998 -86.18767 34055 ft 445 kts 216°
2026-05-06 18:05 25.68698 -86.22293 34054 ft 443 kts 216°
2026-05-06 18:06 25.63436 -86.25789 34056 ft 443 kts 216°
2026-05-06 18:06 25.58140 -86.29305 34044 ft 444 kts 215°
2026-05-06 18:07 25.52818 -86.32835 34055 ft 446 kts 215°
2026-05-06 18:07 25.47494 -86.36364 34053 ft 445 kts 215°
2026-05-06 18:08 25.42170 -86.39886 34050 ft 445 kts 215°
2026-05-06 18:08 25.36885 -86.43383 34050 ft 445 kts 215°
2026-05-06 18:09 25.31564 -86.46896 34051 ft 445 kts 215°
2026-05-06 18:09 25.26236 -86.50411 34043 ft 447 kts 215°
2026-05-06 18:10 25.20892 -86.53933 34047 ft 448 kts 215°
2026-05-06 18:10 25.15539 -86.57458 34046 ft 448 kts 215°
2026-05-06 18:11 25.11095 -86.60380 34049 ft 446 kts 215°
2026-05-06 18:11 25.04855 -86.64479 34041 ft 446 kts 215°
2026-05-06 18:12 24.99549 -86.67964 34047 ft 446 kts 215°
2026-05-06 18:12 24.94210 -86.71467 34040 ft 448 kts 214°
2026-05-06 18:13 24.88847 -86.74980 34045 ft 449 kts 214°
2026-05-06 18:13 24.83474 -86.78496 34044 ft 449 kts 214°
2026-05-06 18:14 24.78105 -86.82007 34042 ft 449 kts 214°
2026-05-06 18:14 24.72731 -86.85515 34041 ft 449 kts 214°
2026-05-06 18:15 24.67364 -86.89017 34041 ft 449 kts 214°
2026-05-06 18:15 24.61994 -86.92515 34041 ft 449 kts 214°
2026-05-06 18:16 24.56622 -86.96013 34035 ft 448 kts 214°
2026-05-06 18:16 24.51260 -86.99501 34035 ft 447 kts 214°
2026-05-06 18:17 24.45903 -87.02982 34036 ft 447 kts 214°
2026-05-06 18:17 24.40576 -87.06440 34036 ft 447 kts 214°
2026-05-06 18:18 24.35210 -87.09916 34023 ft 447 kts 214°
2026-05-06 18:18 24.29825 -87.13406 34027 ft 449 kts 214°
2026-05-06 18:19 24.24707 -87.17227 34029 ft 448 kts 219°
2026-05-06 18:19 24.19621 -87.21177 34025 ft 448 kts 219°
2026-05-06 18:20 24.14532 -87.25113 34026 ft 448 kts 219°
2026-05-06 18:20 24.09428 -87.29052 34023 ft 448 kts 219°
2026-05-06 18:21 24.05199 -87.32314 34022 ft 448 kts 218°
2026-05-06 18:21 23.99262 -87.36880 34020 ft 449 kts 218°
2026-05-06 18:22 23.94976 -87.40175 34021 ft 449 kts 218°
2026-05-06 18:22 23.89894 -87.44084 34017 ft 449 kts 218°
2026-05-06 18:23 23.84778 -87.48017 34018 ft 450 kts 218°
2026-05-06 18:23 23.79653 -87.51948 34018 ft 450 kts 218°
2026-05-06 18:24 23.74518 -87.55887 34015 ft 451 kts 218°
2026-05-06 18:24 23.69377 -87.59827 34010 ft 453 kts 218°
2026-05-06 18:25 23.64217 -87.63780 34014 ft 453 kts 218°
2026-05-06 18:25 23.59050 -87.67733 34014 ft 453 kts 218°
2026-05-06 18:26 23.53918 -87.71655 34009 ft 452 kts 218°
2026-05-06 18:26 23.48772 -87.75586 34006 ft 451 kts 218°
2026-05-06 18:27 23.44304 -87.80271 34005 ft 445 kts 237°
2026-05-06 18:27 23.42819 -87.83212 34008 ft 442 kts 248°
2026-05-06 18:27 23.41681 -87.86329 34007 ft 442 kts 250°
2026-05-06 18:28 23.39485 -87.92605 34001 ft 445 kts 250°
2026-05-06 18:28 23.37250 -87.98856 34003 ft 446 kts 250°
2026-05-06 18:29 23.34982 -88.05147 34000 ft 446 kts 250°
2026-05-06 18:29 23.32710 -88.11436 34000 ft 446 kts 250°
2026-05-06 18:30 23.30438 -88.17722 33997 ft 446 kts 249°
2026-05-06 18:30 23.28164 -88.24001 33997 ft 446 kts 249°
2026-05-06 18:31 23.25887 -88.30276 33998 ft 446 kts 249°
2026-05-06 18:31 23.23608 -88.36556 33995 ft 446 kts 249°
2026-05-06 18:32 23.21348 -88.42791 33991 ft 446 kts 249°
2026-05-06 18:32 23.19068 -88.49082 33986 ft 446 kts 249°
2026-05-06 18:33 23.16784 -88.55352 33982 ft 445 kts 249°
2026-05-06 18:33 23.14482 -88.61558 33980 ft 446 kts 246°
2026-05-06 18:34 23.12915 -88.64462 33978 ft 448 kts 234°
2026-05-06 18:34 23.10784 -88.66937 33980 ft 451 kts 222°
2026-05-06 18:34 23.08173 -88.68832 33974 ft 456 kts 209°
2026-05-06 18:34 23.05189 -88.70043 33979 ft 461 kts 196°
2026-05-06 18:35 23.01997 -88.70482 33980 ft 466 kts 183°
2026-05-06 18:35 22.98760 -88.70106 33980 ft 469 kts 169°
2026-05-06 18:35 22.95674 -88.68915 33981 ft 474 kts 156°
2026-05-06 18:35 22.92858 -88.67034 33989 ft 476 kts 148°
2026-05-06 18:36 22.87438 -88.62916 33980 ft 476 kts 147°
2026-05-06 18:36 22.81987 -88.58844 33976 ft 476 kts 148°
2026-05-06 18:37 22.76554 -88.54826 33975 ft 475 kts 148°
2026-05-06 18:37 22.71090 -88.50802 33978 ft 475 kts 148°
2026-05-06 18:38 22.65726 -88.46628 33977 ft 477 kts 141°
2026-05-06 18:38 22.60837 -88.41762 33980 ft 477 kts 139°
2026-05-06 18:39 22.55960 -88.36866 33977 ft 477 kts 139°
2026-05-06 18:40 22.48646 -88.29564 33976 ft 477 kts 139°
2026-05-06 18:40 22.43794 -88.24724 33969 ft 476 kts 139°
2026-05-06 18:41 22.38938 -88.19891 33974 ft 473 kts 139°
2026-05-06 18:41 22.34099 -88.15075 33981 ft 473 kts 139°
2026-05-06 18:42 22.29261 -88.10267 33974 ft 473 kts 139°
2026-05-06 18:42 22.24449 -88.05487 33978 ft 473 kts 139°
2026-05-06 18:43 22.19599 -88.00675 33977 ft 474 kts 139°
2026-05-06 18:43 22.14736 -87.95852 33572 ft 471 kts 139°
2026-05-06 18:43 22.12319 -87.93455 32471 ft 476 kts 139°
2026-05-06 18:44 22.09862 -87.91022 31400 ft 479 kts 139°
2026-05-06 18:44 22.07401 -87.88590 30465 ft 480 kts 139°
2026-05-06 18:44 22.04966 -87.86184 29431 ft 481 kts 139°
2026-05-06 18:44 22.02501 -87.83746 28307 ft 481 kts 139°
2026-05-06 18:45 22.00033 -87.81306 27158 ft 481 kts 139°
2026-05-06 18:45 21.97565 -87.78869 26045 ft 481 kts 138°
2026-05-06 18:45 21.95095 -87.76432 24852 ft 482 kts 137°
2026-05-06 18:45 21.92621 -87.73993 23760 ft 481 kts 137°
2026-05-06 18:46 21.90159 -87.71565 22673 ft 476 kts 137°
2026-05-06 18:46 21.87736 -87.69179 21922 ft 465 kts 136°
2026-05-06 18:46 21.85393 -87.66874 21510 ft 447 kts 136°
2026-05-06 18:46 21.83139 -87.64656 21132 ft 431 kts 136°
2026-05-06 18:47 21.80991 -87.62542 20768 ft 416 kts 136°
2026-05-06 18:47 21.78894 -87.60477 20458 ft 401 kts 136°
2026-05-06 18:47 21.76871 -87.58488 20183 ft 387 kts 135°
2026-05-06 18:47 21.74906 -87.56557 19732 ft 379 kts 134°
2026-05-06 18:48 21.72968 -87.54650 19153 ft 376 kts 134°
2026-05-06 18:48 21.71038 -87.52754 18565 ft 375 kts 135°
2026-05-06 18:48 21.69112 -87.50862 17927 ft 374 kts 135°
2026-05-06 18:48 21.67202 -87.48992 17453 ft 367 kts 135°
2026-05-06 18:49 21.65371 -87.47201 17183 ft 354 kts 135°
2026-05-06 18:49 21.63523 -87.45472 16979 ft 342 kts 137°
2026-05-06 18:49 21.61704 -87.43902 16732 ft 331 kts 138°
2026-05-06 18:49 21.59939 -87.42389 16324 ft 326 kts 139°
2026-05-06 18:50 21.58175 -87.40874 15856 ft 323 kts 139°
2026-05-06 18:50 21.56426 -87.39371 15405 ft 321 kts 139°
2026-05-06 18:50 21.54688 -87.37878 14960 ft 318 kts 139°
2026-05-06 18:50 21.52967 -87.36404 14543 ft 314 kts 139°
2026-05-06 18:51 21.51267 -87.34945 14117 ft 312 kts 139°
2026-05-06 18:51 21.49581 -87.33502 13718 ft 308 kts 138°
2026-05-06 18:51 21.47915 -87.32075 13265 ft 305 kts 138°
2026-05-06 18:51 21.46253 -87.30653 12969 ft 306 kts 139°
2026-05-06 18:52 21.44594 -87.29233 12911 ft 303 kts 139°
2026-05-06 18:52 21.43013 -87.27883 12902 ft 285 kts 137°
2026-05-06 18:52 21.41488 -87.26584 12899 ft 267 kts 137°
2026-05-06 18:52 21.40057 -87.25364 12648 ft 260 kts 137°
2026-05-06 18:53 21.38647 -87.24157 12268 ft 259 kts 138°
2026-05-06 18:53 21.37125 -87.23104 11885 ft 261 kts 148°
2026-05-06 18:53 21.35513 -87.22225 11513 ft 260 kts 149°
2026-05-06 18:53 21.33924 -87.21376 11146 ft 258 kts 150°
2026-05-06 18:54 21.32315 -87.20516 10795 ft 257 kts 149°
2026-05-06 18:54 21.30727 -87.19662 10460 ft 255 kts 150°
2026-05-06 18:54 21.29111 -87.18876 10104 ft 255 kts 155°
2026-05-06 18:54 21.27442 -87.18228 9730 ft 254 kts 157°
2026-05-06 18:55 21.25782 -87.17597 9380 ft 251 kts 156°
2026-05-06 18:55 21.24147 -87.16974 9032 ft 248 kts 157°
2026-05-06 18:55 21.22527 -87.16353 8697 ft 244 kts 155°
2026-05-06 18:55 21.21070 -87.15511 8382 ft 234 kts 135°
2026-05-06 18:56 21.20063 -87.14178 8036 ft 229 kts 122°
2026-05-06 18:56 21.19214 -87.12749 7680 ft 227 kts 122°
2026-05-06 18:56 21.18356 -87.11318 7245 ft 229 kts 123°
2026-05-06 18:56 21.17480 -87.09882 6854 ft 230 kts 124°
2026-05-06 18:57 21.16606 -87.08459 6542 ft 226 kts 125°
2026-05-06 18:57 21.15737 -87.07054 6125 ft 228 kts 125°
2026-05-06 18:57 21.14858 -87.05635 5730 ft 228 kts 125°
2026-05-06 18:57 21.13983 -87.04232 5424 ft 224 kts 126°
2026-05-06 18:58 21.13118 -87.02845 5084 ft 223 kts 126°
2026-05-06 18:58 21.12261 -87.01474 4760 ft 221 kts 126°
2026-05-06 18:58 21.11403 -87.00102 4355 ft 223 kts 126°
2026-05-06 18:58 21.10556 -86.98741 4130 ft 216 kts 126°
2026-05-06 18:59 21.09743 -86.97435 3874 ft 210 kts 126°
2026-05-06 18:59 21.08936 -86.96140 3622 ft 207 kts 126°
2026-05-06 18:59 21.08021 -86.94979 3287 ft 203 kts 144°
2026-05-06 18:59 21.06763 -86.94291 2876 ft 206 kts 161°
2026-05-06 19:00 21.05338 -86.94157 2508 ft 211 kts 188°
2026-05-06 19:00 21.04016 -86.94864 2104 ft 220 kts 219°
2026-05-06 19:00 21.03174 -86.96253 1762 ft 228 kts 250°
2026-05-06 19:00 21.03025 -86.97372 1530 ft 232 kts 270°
2026-05-06 19:01 21.03764 -86.99529 1293 ft 234 kts 302°
2026-05-06 19:01 21.04667 -87.00994 1277 ft 236 kts 304°
2026-05-06 19:01 21.05586 -87.02448 1279 ft 238 kts 304°
2026-05-06 19:01 21.06514 -87.03909 1282 ft 236 kts 304°
2026-05-06 19:02 21.07435 -87.05361 1282 ft 237 kts 304°
2026-05-06 19:02 21.08353 -87.06802 1281 ft 238 kts 304°
2026-05-06 19:02 21.09286 -87.08265 1280 ft 238 kts 304°
2026-05-06 19:02 21.10026 -87.09855 1253 ft 238 kts 289°
2026-05-06 19:03 21.10587 -87.11518 1230 ft 236 kts 288°
2026-05-06 19:03 21.11141 -87.13180 1229 ft 237 kts 288°
2026-05-06 19:03 21.11681 -87.14838 1237 ft 234 kts 288°
2026-05-06 19:03 21.12232 -87.16487 1238 ft 237 kts 296°
2026-05-06 19:04 21.13208 -87.17902 1241 ft 238 kts 315°
2026-05-06 19:04 21.14527 -87.18961 1242 ft 235 kts 339°
2026-05-06 19:04 21.16101 -87.19346 1230 ft 235 kts
2026-05-06 19:04 21.17691 -87.19044 1241 ft 231 kts 27°
2026-05-06 19:05 21.19073 -87.18274 1249 ft 223 kts 39°
2026-05-06 19:05 21.19986 -87.17039 1226 ft 209 kts 78°
2026-05-06 19:05 21.20068 -87.15523 1244 ft 202 kts 102°
2026-05-06 19:05 21.19686 -87.14067 1246 ft 203 kts 114°
2026-05-06 19:06 21.19098 -87.12709 1244 ft 200 kts 120°
2026-05-06 19:06 21.18403 -87.11405 1242 ft 202 kts 123°
2026-05-06 19:06 21.17664 -87.10174 1230 ft 188 kts 124°
2026-05-06 19:06 21.16970 -87.09053 1231 ft 172 kts 125°
2026-05-06 19:07 21.16356 -87.08061 1262 ft 149 kts 125°
2026-05-06 19:07 21.15996 -87.07481 1247 ft 133 kts 125°
2026-05-06 19:07 21.15304 -87.06370 1240 ft 134 kts 125°
2026-05-06 19:07 21.14795 -87.05553 1244 ft 132 kts 125°
2026-05-06 19:08 21.14291 -87.04744 1248 ft 131 kts 126°
2026-05-06 19:08 21.13787 -87.03934 1250 ft 130 kts 125°
2026-05-06 19:08 21.13281 -87.03123 1248 ft 133 kts 125°
2026-05-06 19:08 21.12767 -87.02298 1249 ft 132 kts 125°
2026-05-06 19:09 21.12259 -87.01484 1246 ft 132 kts 125°
2026-05-06 19:09 21.11746 -87.00660 1245 ft 134 kts 125°
2026-05-06 19:09 21.11400 -87.00105 1247 ft 136 kts 125°
2026-05-06 19:09 21.10694 -86.98972 1258 ft 137 kts 126°
2026-05-06 19:10 21.10348 -86.98416 1257 ft 134 kts 126°
2026-05-06 19:10 21.09665 -86.97322 1255 ft 133 kts 126°
2026-05-06 19:10 21.09149 -86.96493 1275 ft 134 kts 126°
2026-05-06 19:10 21.08797 -86.95929 1278 ft 134 kts 126°
2026-05-06 19:11 21.08296 -86.95125 1279 ft 131 kts 126°
2026-05-06 19:11 21.07781 -86.94300 1165 ft 133 kts 126°
2026-05-06 19:11 21.07277 -86.93489 1031 ft 125 kts 126°
2026-05-06 19:11 21.06804 -86.92731 876 ft 121 kts 125°
2026-05-06 19:12 21.06343 -86.91991 716 ft 118 kts 124°
2026-05-06 19:12 21.05887 -86.91258 550 ft 120 kts 122°
2026-05-06 19:12 21.05415 -86.90518 390 ft 121 kts 123°
2026-05-06 19:12 21.04953 -86.89760 218 ft 122 kts 122°
2026-05-06 19:13 21.04471 -86.88997 65 ft 125 kts 125°
2026-05-06 19:13 21.04032 -86.88269 45 ft 107 kts 126°
2026-05-06 19:13 21.03680 -86.87734 40 ft 57 kts 122°
2026-05-06 19:13 21.03595 -86.87442 40 ft 15 kts 96°
2026-05-06 19:14 21.03603 -86.87377 37 ft 6 kts 50°
2026-05-06 19:14 21.03634 -86.87374 37 ft 3 kts 311°
2026-05-06 19:14 21.03655 -86.87396 37 ft 1 kts 315°
2026-05-06 19:14 21.03659 -86.87400 37 ft 2 kts 314°
2026-05-06 19:15 21.03676 -86.87421 37 ft 5 kts 312°
2026-05-06 19:15 21.03684 -86.87432 37 ft 0 kts 309°
2026-05-06 19:16 21.03685 -86.87432 37 ft 1 kts 308°
2026-05-06 19:16 21.03693 -86.87445 37 ft 4 kts 307°
2026-05-06 19:17 21.03714 -86.87478 36 ft 7 kts 303°
2026-05-06 19:17 21.03744 -86.87528 36 ft 9 kts 303°
2026-05-06 19:17 21.03783 -86.87592 36 ft 12 kts 304°
2026-05-06 19:17 21.03832 -86.87670 36 ft 14 kts 305°
2026-05-06 19:18 21.03890 -86.87763 36 ft 16 kts 305°
2026-05-06 19:18 21.03956 -86.87869 36 ft 18 kts 307°
2026-05-06 19:18 21.04029 -86.87982 36 ft 19 kts 307°
2026-05-06 19:18 21.04102 -86.88100 35 ft 21 kts 304°
2026-05-06 19:19 21.04164 -86.88203 36 ft 14 kts 311°
2026-05-06 19:19 21.04224 -86.88293 36 ft 16 kts 304°
2026-05-06 19:19 21.04287 -86.88398 36 ft 18 kts 306°
2026-05-06 19:19 21.04362 -86.88515 36 ft 20 kts 308°
2026-05-06 19:20 21.04466 -86.88594 35 ft 20 kts 31°
2026-05-06 19:20 21.04584 -86.88514 34 ft 21 kts 38°
2026-05-06 19:20 21.04710 -86.88426 34 ft 21 kts 34°
2026-05-06 19:20 21.04817 -86.88348 34 ft 13 kts 36°
2026-05-06 19:21 21.04897 -86.88291 34 ft 10 kts 35°
2026-05-06 19:21 21.04894 -86.88233 34 ft 6 kts 122°
2026-05-06 19:21 21.04887 -86.88221 34 ft 0 kts 125°